Terminal Aerodrome Forecast
Issued by NWS

Home | Current Version | Previous Version | Text Only | Print | Product List | Glossary On
Versions: 1 2 3 4 5 6 7 8 9 10 11 12 13 14
870
FTUS44 KMAF 141730
TAFINK
TAF
KINK 141730Z 1418/1518 04011KT P6SM SKC
     FM151300 36011KT P6SM SKC=

USA.gov is the U.S. government's official web portal to all federal, state and local government web resources and services.